Weather History for South Lake Tahoe, CA

Change the Weather History Date:

Thursday, January 17, 2013

  Actual Average Record
Temperature  
Mean Temperature 24 °F 30 °F  
Max Temperature 46 °F 43 °F 61 °F (2011)
Min Temperature 2 °F 16 °F -6 °F (2001)
Degree Days  
Heating Degree Days 41 35  
Month to date heating degree days 734 602  
Since 1 July heating degree days 3596 3785  
Cooling Degree Days 0 0  
Month to date cooling degree days 0 0  
Year to date cooling degree days 0 0  
Moisture  
Dew Point 8 °F    
Average Humidity 54    
Maximum Humidity 80    
Minimum Humidity 28    
Precipitation  
Precipitation 0.00 in - 2.44 in (1950)
Month to date precipitation 0.36  
Year to date precipitation 0.36  
Sea Level Pressure  
Sea Level Pressure 30.51 in    
Wind  
Wind Speed 2 mph (South)    
Max Wind Speed 10 mph    
Max Gust Speed 24 mph    
Visibility 9 miles    
Events      
T = Trace of Precipitation, MM = Missing Value Source: NWS Daily Summary

Daily Weather History Graph

Daily Weather History Graph

Search for Another Location

Airport:

Trip Planner

Search our weather history database for the weather conditions in past years. The results will help you decide how hot, cold, wet, or windy it might be!

Date:

Astronomy

Jan. 17, 2013 Rise Set
Actual Time 7:16 AM PST 5:04 PM PST
Civil Twilight 6:47 AM PST 5:33 PM PST
Nautical Twilight 6:14 AM PST 6:06 PM PST
Astronomical Twilight 5:42 AM PST 6:38 PM PST
Moon 10:29 AM PST (1/17) 11:56 PM PST (1/17)
Length of Visible Light 10h 46m
Length of Day
9h 48m
Waxing Crescent, 39% of the Moon is Illuminated
Jan 17
Waxing Crescent
Jan 18
First Quarter
Jan 26
Full
Feb 3
Last Quarter
Feb 9
New

Hourly Weather History & Observations

Time (PST) Temp. Windchill Dew Point Humidity Pressure Visibility Wind Dir Wind Speed Gust Speed Precip Events Conditions
12:53 AM 12.0 °F - 5.0 °F 73% 30.50 in 8.0 mi Calm Calm - N/A   Clear
1:53 AM 10.9 °F 4.7 °F 3.9 °F 73% 30.50 in 8.0 mi South 3.5 mph - N/A   Clear
4:53 AM 7.0 °F -1.7 °F -0.0 °F 73% 30.56 in 10.0 mi SSW 4.6 mph - N/A   Clear
5:53 AM 3.9 °F - -2.0 °F 76% 30.61 in 10.0 mi Calm Calm - N/A   Clear
6:53 AM 3.9 °F -3.4 °F -2.0 °F 76% 30.63 in 10.0 mi SW 3.5 mph - N/A   Clear
7:53 AM 1.9 °F -7.6 °F -4.0 °F 76% 30.66 in 6.0 mi South 4.6 mph - N/A   Haze
8:53 AM 10.0 °F 3.6 °F 3.0 °F 73% 30.63 in 9.0 mi South 3.5 mph - N/A   Clear
9:53 AM 23.0 °F - 10.0 °F 58% 30.57 in 9.0 mi Calm Calm - N/A   Clear
10:53 AM 32.0 °F 28.7 °F 10.0 °F 40% 30.52 in 10.0 mi NNE 3.5 mph - N/A   Clear
11:53 AM 41.0 °F - 10.0 °F 28% 30.45 in 10.0 mi Calm Calm - N/A   Clear
12:53 PM 44.1 °F 40.1 °F 14.0 °F 30% 30.41 in 10.0 mi NE 6.9 mph - N/A   Clear
1:53 PM 44.1 °F 39.5 °F 14.0 °F 30% 30.39 in 10.0 mi NE 8.1 mph - N/A   Clear
2:53 PM 45.0 °F 40.6 °F 14.0 °F 29% 30.38 in 10.0 mi NNE 8.1 mph - N/A   Clear
3:53 PM 37.9 °F - 19.0 °F 47% 30.42 in 10.0 mi Calm Calm - N/A   Clear
4:53 PM 33.1 °F - 17.1 °F 52% 30.47 in 10.0 mi Calm Calm - N/A   Clear
5:53 PM 26.1 °F - 14.0 °F 60% 30.53 in 10.0 mi Calm Calm - N/A   Clear
6:53 PM 25.0 °F - 14.0 °F 63% 30.53 in 10.0 mi Calm Calm - N/A   Clear
7:53 PM 21.9 °F - 10.9 °F 63% 30.57 in 10.0 mi Calm Calm - N/A   Clear
8:53 PM 18.0 °F - 10.0 °F 71% 30.56 in 10.0 mi Calm Calm - N/A   Clear
9:53 PM 17.1 °F 11.7 °F 8.1 °F 68% 30.49 in 10.0 mi South 3.5 mph - N/A   Clear
10:53 PM 15.1 °F - 7.0 °F 70% 30.46 in 9.0 mi Calm Calm - N/A   Clear
11:53 PM 12.9 °F 6.9 °F 5.0 °F 71% 30.43 in 8.0 mi SSW 3.5 mph - N/A   Clear